sat.trackr.live / text

‹ back to catalog

STARLINK-11702 [DTC]

NORAD 63752 · 2025-089B

PAYLOAD ACTIVE UNKNOWN

§ Identity

Operator
Country
US
Launch date
2025-04-29
Launch site
AFETR
Launch vehicle
Mass (kg)
RCS (m²)

Purposes: comms

External: N2YO · Heavens-Above · Gunter

§ Orbital elements

Epoch: 2026-09-19T23:36:55.684512Z

Period
91.67 min
Inclination
43.0001°
Eccentricity
0.0001433
Mean motion
15.70816764 rev/d
Perigee alt
355.6 km
Apogee alt
357.5 km
Semi-major
6,734.7 km
B*
1.1277e-3
RAAN
201.0385°
Arg perigee
235.2945°
Mean anomaly
124.7788°
Rev number
8,069

§ Raw data

STARLINK-11702 [DTC]1 63752U 25089B   26262.98397783  .00146693  00000+0  11277-2 0  99972 63752  43.0001 201.0385 0001433 235.2945 124.7788 15.70816764 80698

JSON: /api/v1/satellites/63752 · /tle

For live sub-satellite position, see the globe view (requires WebGL).

§ Visibility from observer

Set your observer location to see the next 7 days of passes ≥ 10°. The values pass through the URL so the page stays shareable.

No JS? Fill the form by hand. The geolocation button needs JavaScript.